TimeCST,TemperatureF,Dew PointF,Humidity,Sea Level PressureIn,VisibilityMPH,Wind Direction,Wind SpeedMPH,Gust SpeedMPH,PrecipitationIn,Events,Conditions,WindDirDegrees,DateUTC
12:36 AM,60.8,59.0,94,29.94,7.0,SSE,10.4,-,0.00,Rain,Light Rain,160,2013-01-01 06:36:00
12:53 AM,60.1,59.0,96,29.95,8.0,SSE,8.1,-,0.00,,Overcast,160,2013-01-01 06:53:00
1:23 AM,60.8,59.0,94,29.95,2.5,NW,9.2,-,0.13,Rain,Heavy Rain,320,2013-01-01 07:23:00
1:27 AM,60.8,59.0,94,29.95,1.8,NW,9.2,-,0.18,Rain,Heavy Rain,320,2013-01-01 07:27:00
1:42 AM,59.0,57.2,94,29.96,2.0,NNW,9.2,-,0.32,Rain,Heavy Rain,340,2013-01-01 07:42:00
1:47 AM,57.2,57.2,100,29.96,3.0,NNW,9.2,-,0.36,Rain,Heavy Rain,330,2013-01-01 07:47:00
1:53 AM,57.9,57.9,100,29.97,2.0,North,12.7,-,0.46,Rain,Heavy Rain,350,2013-01-01 07:53:00
2:22 AM,57.2,57.2,100,29.96,3.0,NNE,6.9,-,0.26,Rain,Heavy Rain,20,2013-01-01 08:22:00
2:32 AM,57.2,57.2,100,29.96,3.0,ENE,5.8,-,0.31,Rain,Heavy Rain,60,2013-01-01 08:32:00
2:53 AM,57.9,57.0,97,29.95,3.0,NE,9.2,-,0.42,Rain,Heavy Rain,50,2013-01-01 08:53:00
3:16 AM,57.2,57.2,100,29.95,5.0,NNE,5.8,-,0.06,Rain,Heavy Rain,30,2013-01-01 09:16:00
3:31 AM,57.2,57.2,100,29.95,3.0,North,5.8,-,0.15,Rain,Heavy Rain,10,2013-01-01 09:31:00
3:45 AM,57.2,57.2,100,29.96,4.0,NW,6.9,-,0.21,Rain,Heavy Rain,320,2013-01-01 09:45:00
3:53 AM,57.0,57.0,100,29.97,3.0,NNW,6.9,-,0.24,Rain,Heavy Rain,340,2013-01-01 09:53:00
4:34 AM,57.2,57.2,100,29.96,2.0,NNW,8.1,-,0.12,Rain,Heavy Rain,330,2013-01-01 10:34:00
4:53 AM,57.0,55.9,96,29.98,2.0,NNW,8.1,-,0.23,Rain,Heavy Rain,340,2013-01-01 10:53:00
5:02 AM,55.4,55.4,100,29.96,1.5,NNW,11.5,-,0.12,Rain,Heavy Rain,340,2013-01-01 11:02:00
5:12 AM,55.4,55.4,100,29.96,2.0,NNW,8.1,-,0.22,Rain,Heavy Rain,340,2013-01-01 11:12:00
5:26 AM,55.4,55.4,100,29.97,3.0,North,8.1,-,0.33,Rain,Heavy Rain,350,2013-01-01 11:26:00
6:53 AM,54.0,53.1,97,30.00,7.0,North,5.8,-,0.15,Rain,Rain,10,2013-01-01 12:53:00
7:14 AM,53.6,51.8,94,30.00,8.0,North,9.2,-,0.03,Rain,Rain,10,2013-01-01 13:14:00
7:48 AM,53.6,51.8,94,30.01,4.0,North,8.1,-,0.14,Rain,Heavy Rain,360,2013-01-01 13:48:00
7:53 AM,53.1,52.0,96,30.03,4.0,North,6.9,-,0.16,Rain,Heavy Rain,360,2013-01-01 13:53:00
8:53 AM,52.0,52.0,100,30.03,4.0,North,5.8,-,0.22,Rain,Rain,360,2013-01-01 14:53:00
9:04 AM,51.8,51.8,100,30.02,6.0,NNE,6.9,-,0.02,Rain,Rain,20,2013-01-01 15:04:00
9:11 AM,51.8,51.8,100,30.03,6.0,North,5.8,-,0.03,Rain,Rain,10,2013-01-01 15:11:00
9:53 AM,52.0,51.1,97,30.07,10.0,NNW,9.2,-,0.03,,Overcast,340,2013-01-01 15:53:00
10:00 AM,51.8,51.8,100,30.06,10.0,North,9.2,-,0.00,Rain,Light Rain,350,2013-01-01 16:00:00
10:07 AM,51.8,50.0,94,30.05,10.0,North,8.1,-,0.00,Rain,Light Rain,350,2013-01-01 16:07:00
10:53 AM,52.0,50.0,93,30.07,10.0,North,8.1,17.3,0.00,,Mostly Cloudy,360,2013-01-01 16:53:00
11:00 AM,51.8,50.0,94,30.05,10.0,North,10.4,-,N/A,,Overcast,350,2013-01-01 17:00:00
11:28 AM,51.8,50.0,94,30.04,10.0,NNE,8.1,-,0.00,Rain,Light Rain,20,2013-01-01 17:28:00
11:44 AM,51.8,50.0,94,30.04,10.0,NNW,8.1,-,0.00,Rain,Light Rain,340,2013-01-01 17:44:00
11:53 AM,52.0,50.0,93,30.04,10.0,NNW,9.2,-,0.00,Rain,Light Rain,340,2013-01-01 17:53:00
12:02 PM,51.8,51.8,100,30.03,10.0,NNW,10.4,-,0.00,Rain,Light Rain,330,2013-01-01 18:02:00
12:12 PM,51.8,51.8,100,30.03,10.0,NNW,10.4,-,0.00,Rain,Light Rain,330,2013-01-01 18:12:00
12:44 PM,51.8,50.0,94,30.04,10.0,NNW,11.5,-,0.00,Rain,Light Rain,330,2013-01-01 18:44:00
1:44 PM,51.8,50.0,94,30.02,10.0,NNW,13.8,18.4,0.01,Rain,Light Rain,340,2013-01-01 19:44:00
1:53 PM,51.1,48.9,92,30.04,10.0,NNW,11.5,-,0.01,,Overcast,340,2013-01-01 19:53:00
2:08 PM,51.8,48.2,88,30.03,10.0,NNW,9.2,-,N/A,,Overcast,340,2013-01-01 20:08:00
2:53 PM,50.0,48.9,96,30.06,4.0,NNW,8.1,-,0.02,Rain,Rain,340,2013-01-01 20:53:00
3:06 PM,50.0,48.2,94,30.05,7.0,North,8.1,-,0.01,Rain,Light Rain,350,2013-01-01 21:06:00
3:53 PM,50.0,48.9,96,30.05,10.0,North,5.8,-,0.02,Rain,Light Rain,360,2013-01-01 21:53:00
4:12 PM,50.0,48.2,94,30.04,10.0,North,4.6,-,0.00,,Overcast,350,2013-01-01 22:12:00
4:53 PM,50.0,48.9,96,30.08,10.0,NNW,8.1,-,0.00,,Overcast,330,2013-01-01 22:53:00
5:53 PM,48.9,46.9,93,30.11,10.0,NNW,10.4,-,N/A,,Overcast,340,2013-01-01 23:53:00
6:53 PM,48.9,46.0,90,30.14,10.0,NNW,8.1,-,N/A,,Overcast,340,2013-01-02 00:53:00
7:53 PM,48.0,45.0,89,30.15,10.0,North,11.5,-,N/A,,Overcast,350,2013-01-02 01:53:00
8:53 PM,46.9,44.1,90,30.17,10.0,North,10.4,-,N/A,,Overcast,350,2013-01-02 02:53:00
9:53 PM,46.0,43.0,89,30.18,10.0,North,10.4,-,N/A,,Overcast,350,2013-01-02 03:53:00
10:53 PM,45.0,42.1,90,30.19,10.0,North,12.7,-,N/A,,Overcast,360,2013-01-02 04:53:00
11:53 PM,44.1,39.9,85,30.19,10.0,North,12.7,-,N/A,,Overcast,350,2013-01-02 05:53:00